sat.trackr.live / text

‹ back to catalog

KUIPER-00101

NORAD 65947 · 2025-228A

PAYLOAD ACTIVE UNKNOWN

§ Identity

Operator
Country
US
Launch date
2025-10-14
Launch site
AFETR
Launch vehicle
Mass (kg)
RCS (m²)

External: N2YO · Heavens-Above · Gunter

§ Orbital elements

Epoch: 2026-05-25T01:43:06.538080Z

Period
97.30 min
Inclination
51.8993°
Eccentricity
0.0000969
Mean motion
14.79931381 rev/d
Perigee alt
628.9 km
Apogee alt
630.2 km
Semi-major
7,007.7 km
B*
1.2082e-4
RAAN
22.8032°
Arg perigee
101.5643°
Mean anomaly
258.5428°
Rev number
3,454

§ Raw data

KUIPER-001011 65947U 25228A   26145.07160345  .00000700  00000+0  12082-3 0  99962 65947  51.8993  22.8032 0000969 101.5643 258.5428 14.79931381 34545

JSON: /api/v1/satellites/65947 · /tle

For live sub-satellite position, see the globe view (requires WebGL).

§ Visibility from observer

Set your observer location to see the next 7 days of passes ≥ 10°. The values pass through the URL so the page stays shareable.

No JS? Fill the form by hand. The geolocation button needs JavaScript.